Regional Weather Roundup
Issued by NWS

Home | Current Version | Previous Version | Graphics & Text | Print | Product List | Glossary On
Versions: 1 2 3 4 5 6 7 8 9 10 11 12 13 14 15 16 17 18 19 20 21 22 23 24 25 26 27 28 29 30 31 32 33 34 35 36 37 38 39 40 41 42 43 44 45 46 47 48 49 50
000
ASUS43 KDMX 061103
RWRIA

WEATHER ROUNDUP FOR IOWA
NATIONAL WEATHER SERVICE DES MOINES IA
600 AM CDT FRI MAY 06 2016

NOTE: "FAIR" INDICATES FEW OR NO CLOUDS BELOW 12,000 FEET WITH NO
SIGNIFICANT WEATHER AND/OR OBSTRUCTIONS TO VISIBILITY.

* - THESE STATIONS ARE NOT NWS STATIONS...THUS NOT UNDER NWS
QUALITY CONTROL.  THEY ALSO DO NOT REPORT WEATHER SUCH
AS PRECIPITATION OR FOG.

IAZ001>003-012>014-020>022-031>034-043>046-061200-
   NORTHWEST IOWA

CITY           SKY/WX    TMP DP  RH WIND       PRES   REMARKS
CARROLL *      PTCLDY    57  43  58 SW13G18   29.97S
CHEROKEE *     CLEAR     50  43  77 CALM      29.96S
DENISON *      CLEAR     52  43  71 W3        29.97R
LE MARS *      CLEAR     50  43  76 CALM      29.96S
ORANGE CITY *  CLEAR     52  43  71 SW6       29.95S
SHELDON *      CLEAR     52  43  71 S9        29.93S
SIOUX CITY     CLEAR     49  43  80 E7        29.96S
SPENCER        CLEAR     53  41  63 SW10      29.95S
STORM LAKE *   CLEAR     55  41  58 SW7       29.98R
$$

IAZ055>058-069>071-079>083-090>094-061200-
   SOUTHWEST IOWA

CITY           SKY/WX    TMP DP  RH WIND       PRES   REMARKS
ATLANTIC *     CLEAR     45  43  93 CALM      30.01S
AUDUBON *      CLEAR     45  41  87 CALM      30.01S
CLARINDA *       N/A     48  45  87 MISG      30.04S
COUNCIL BLFS * CLEAR     57  45  62 SW7       30.00S
CRESTON *      CLEAR     52  41  66 SW8       30.03S
HARLAN  *      CLEAR     48  43  81 S3        30.03S
LAMONI         CLEAR     50  41  71 SW8       30.02S
RED OAK *      CLEAR     46  43  87 CALM      30.02R
SHENANDOAH *   CLEAR     50  45  81 CALM      30.02S
$$

IAZ047>049-059>061-072>074-084-061200-
   CENTRAL IOWA

CITY           SKY/WX    TMP DP  RH WIND       PRES   REMARKS
AMES           CLEAR     47  41  80 SW3       29.98R
ANKENY *       CLEAR     48  43  81 S3        29.99S
BOONE *        CLEAR     54  43  66 W9        29.97R
CHARITON *     CLEAR     52  39  62 SW8       30.02R
DES MOINES     CLEAR     52  41  66 SW6       30.00R
GRINNELL*      CLEAR     48  39  71 SW6       29.99R
KNOXVILLE *    CLEAR     50  39  66 SW8       29.99S
MARSHALLTOWN   CLEAR     48  40  73 SW10      29.96S
NEWTON *       CLEAR     50  41  71 SW8       29.98S
PELLA *        CLEAR     50  38  64 SW6       30.01S
PERRY *          N/A     52  43  71 S6        29.98S
$$

IAZ004>006-015-016-023>025-035-036-061200-
   NORTH CENTRAL IOWA

CITY           SKY/WX    TMP DP  RH WIND       PRES   REMARKS
ALGONA *       CLEAR     54  43  66 SW9       29.95S
CLARION *      CLEAR     46  39  76 S5        29.96S
ESTHERVILLE    CLEAR     55  42  61 SW16      29.93S
FORT DODGE *   CLEAR     50  39  66 CALM      29.97S
MASON CITY     CLEAR     57  41  55 W15       29.95S
FOREST CITY *    N/A     48  41  76 SW5       29.95R
WEBSTER CITY * CLEAR     48  43  81 SW10      29.95R
IOWA FALLS *     N/A     50  41  71 W9        29.97R
$$

IAZ007>011-017>019-026>030-037>042-050>054-066-061200-
   NORTHEAST IOWA

CITY           SKY/WX    TMP DP  RH WIND       PRES   REMARKS
CEDAR RAPIDS   CLEAR     51  39  63 S5        29.96S
CHARLES CITY * CLEAR     48  39  71 SW5       29.94S
CLINTON *      CLEAR     48  40  73 S7        29.99R
DECORAH *      MOCLDY    54  39  58 CALM      29.93R
DUBUQUE        CLEAR     46  38  73 SW9       29.96S
MONTICELLO *   CLEAR     48  37  66 SE5       29.96S
OELWEIN *      CLEAR     46  39  76 SW6       29.96R
WATERLOO       CLEAR     51  39  63 SW6       29.95R
$$

IAZ064-065-067-068-078-061200-
   EAST CENTRAL IOWA

CITY           SKY/WX    TMP DP  RH WIND       PRES   REMARKS
DAVENPORT      CLEAR     48  37  65 SW3       30.00R
IOWA CITY      CLEAR     45  41  86 CALM      30.00R
MT. PLEASANT * CLEAR     48  41  76 SW5       30.01R
MUSCATINE *    CLEAR     46  39  76 MISG      30.00S
QUAD CITIES    CLEAR     43  39  86 CALM      29.99R
$$

IAZ062-063-075>077-085>089-095>099-061200-
   SOUTHEAST IOWA

CITY           SKY/WX    TMP DP  RH WIND       PRES   REMARKS
BURLINGTON     CLEAR     48  38  68 SW6       30.01R
FAIRFIELD *    CLEAR     50  36  57 SW8       30.00S
FORT MADISON * CLEAR     48  39  71 SW3       30.03R
KEOKUK *       CLEAR     48  41  76 SW7       30.02R
OSKALOOSA *      N/A     46  37  71 SW7       30.00S
OTTUMWA        CLEAR     48  38  68 SW7       30.00R
WASHINGTON *   CLEAR     48  39  71 SW9       30.01R
$$

ABBREVIATIONS USED IN REMARKS
   TC - TEMPERATURES IN CELSIUS
  WCI - WIND CHILL INDEX
   HX - HEAT INDEX
  VSB - VISIBILITY
$$





USA.gov is the U.S. government's official web portal to all federal, state and local government web resources and services.